Simultaneous Nadir Overpasses (SNOs) Predictions

Prediction of SNOs between GOES-15 and METOP-A Satellite Orbit:

Table of predicted SNOs for the next 14.0 days since TLE Epoch: 6/20/2015
Index Date Time (GOES-15) GOES-15 Lat,Lon METOP-A Lat,Lon Distance(km) Time Diff (sec)
1 06/21/2015 18:25:14 -0.12,-134.42 -0.13,-134.26 18.19 80
2 06/23/2015 06:46:53 0.10,-134.53 -0.88,-138.86 494.28 80
3 06/24/2015 06:23:33 0.12,-134.57 0.28,-133.87 79.21 80
4 06/25/2015 18:45:03 -0.10,-134.59 0.76,-138.43 437.06 80
5 06/26/2015 18:21:43 -0.11,-134.63 -0.41,-133.44 136.18 80
6 06/28/2015 06:43:21 0.10,-134.72 -0.66,-138.03 377.12 80
7 06/29/2015 06:20:02 0.11,-134.75 0.51,-133.04 195.53 80
8 06/30/2015 18:41:31 -0.09,-134.77 0.52,-137.60 322.18 80
9 07/01/2015 18:18:11
